Wind_Speed
3 4 6 7 6 6 5 4 3 2 1 2 3 4 5 5 4 4 4 4 4 4 4 4 3 3 3 2 2 2 2 2 2 2 3 4 4 6 6 7 7 8 9
4 5 6 6 7 7 6 5 4 3 2 3 4 5 5 5 5 5 5 5 4 4 4 4 3 3 3 2 2 2 2 1 1 2 3 4 5 6 6 7 7 8 9
4 6 7 7 7 7 7 7 5 4 4 4 4 5 5 5 5 5 5 5 5 5 5 4 4 3 3 3 2 2 1 1 2 2 3 4 5 6 6 7 8 8 8
4 7 8 8 8 8 8 8 7 6 5 4 4 5 6 6 6 6 6 6 5 5 5 5 4 4 4 3 2 2 1 1 2 2 3 4 5 6 6 7 8 8 8
5 6 8 9 10 9 9 9 8 7 6 5 5 5 6 6 6 6 6 6 6 6 6 5 5 4 4 3 2 2 1 0 1 2 3 4 5 6 7 7 7 7 7
5 6 8 9 10 10 10 10 9 9 7 6 5 6 6 7 6 6 6 6 6 6 6 5 5 4 4 3 2 1 1 0 1 2 3 4 5 6 7 7 7 7 7
6 7 8 9 11 11 11 11 10 9 8 7 6 6 6 6 6 6 6 6 6 6 5 5 5 4 3 3 2 1 1 1 1 2 3 4 5 6 6 6 6 7 8
6 8 8 10 11 12 12 12 12 10 9 8 7 7 6 7 6 6 6 6 6 6 5 5 4 4 3 2 2 2 2 2 3 3 3 4 4 5 6 6 6 7 7
7 9 9 10 12 12 13 13 13 12 10 9 8 7 7 7 7 6 6 6 6 6 5 4 4 3 3 2 2 2 2 2 3 4 4 4 4 5 6 6 7 7 7
7 8 8 10 12 12 13 14 14 13 11 10 8 7 7 7 7 6 6 6 6 5 5 4 4 3 3 2 2 2 2 3 3 3 4 4 5 5 6 7 7 7 7
6 7 9 10 12 13 14 15 14 13 12 11 9 8 7 6 6 6 6 6 5 5 4 4 4 3 3 3 2 2 2 3 3 4 4 4 5 6 6 7 8 8 7
5 7 9 10 12 14 15 16 15 14 13 11 10 8 8 7 7 6 6 6 5 4 4 4 4 3 2 2 2 2 3 2 3 4 4 5 5 6 7 7 8 8 8
7 7 9 11 12 14 16 17 16 15 14 12 11 9 8 7 7 6 6 6 5 5 4 4 3 3 2 1 2 2 2 2 2 2 4 4 5 5 6 7 7 7 8
6 6 10 11 13 14 15 17 16 16 14 13 11 10 9 8 7 6 6 5 5 4 4 3 3 2 1 1 2 2 3 2 2 1 2 4 4 5 6 7 7 7 8
5 7 8 10 12 13 14 16 17 17 16 14 12 11 9 8 7 6 5 5 4 3 3 2 2 1 1 1 2 2 2 2 2 2 2 3 4 4 5 6 6 7 8
7 7 8 9 12 13 14 16 17 16 16 15 13 12 10 9 7 6 5 4 4 3 2 1 1 1 1 1 1 1 2 2 2 2 3 3 3 4 5 5 5 6 7
8 7 7 8 10 13 14 16 17 16 16 16 15 13 11 10 8 7 5 4 3 2 2 2 1 1 1 1 1 1 2 2 2 3 3 3 3 3 4 5 5 6 6
9 6 6 8 9 11 14 16 17 17 17 16 15 14 12 10 9 7 5 4 3 3 3 2 2 1 1 1 1 1 1 2 3 3 4 4 3 3 4 5 5 5 5
9 8 6 8 8 10 13 15 17 17 17 17 16 15 13 11 9 7 5 5 4 4 3 3 3 2 2 2 1 1 2 2 2 3 3 4 4 3 4 4 4 4 4
9 7 6 7 8 10 12 13 16 17 18 17 16 16 14 12 10 8 6 6 5 4 4 4 3 3 3 2 2 3 3 3 2 3 3 3 4 4 4 3 3 3 3
9 5 5 6 8 10 11 14 15 16 18 17 17 16 15 13 12 10 8 7 6 6 5 4 4 4 4 4 4 4 4 3 3 3 3 3 3 3 3 3 3 3 3
8 5 4 5 6 8 10 13 14 16 18 18 18 17 15 14 13 11 9 8 8 7 7 6 6 5 5 4 4 4 4 4 4 3 3 3 3 3 3 2 2 2 2
8 5 5 4 6 7 8 10 13 16 18 18 17 17 16 15 14 12 11 10 9 9 8 8 7 7 6 5 5 4 3 3 2 2 2 2 1 1 1 1 1 2 3
8 4 3 4 6 7 9 10 13 16 17 18 18 17 16 16 15 14 12 12 11 10 10 9 8 8 7 7 6 5 4 3 2 1 1 1 2 2 2 2 3 3 4
8 5 3 4 5 7 9 11 14 15 17 18 18 17 17 16 16 15 13 13 13 12 11 11 10 9 9 8 7 6 5 5 5 4 4 4 5 5 5 5 5 5 6
7 3 2 3 4 6 9 11 14 15 16 18 18 17 17 17 16 15 14 14 14 14 13 12 11 11 10 10 10 9 9 8 8 8 7 7 8 8 8 8 8 9 10
Wind_Direction
192 191 192 191 188 184 183 184 184 201 251 304 322 329 331 329 333 338 340 343 344 345 349 355 3 6 11 21 31 39 42 54 71 98 116 127 125 131 134 135 137 138 138
207 205 204 200 199 196 195 196 197 214 250 284 306 319 322 320 321 326 331 336 338 339 341 345 350 351 352 359 12 23 32 61 98 120 137 141 135 136 138 138 138 140 140
226 210 207 206 204 203 205 206 206 217 246 272 296 309 313 313 314 319 326 330 330 333 336 337 340 341 342 347 358 6 16 90 138 145 150 150 147 140 140 141 142 141 141
228 216 211 212 210 210 212 213 213 219 239 262 285 301 308 310 310 313 317 320 323 326 328 328 331 334 336 342 352 7 24 108 148 149 140 148 153 149 146 148 150 147 145
231 217 215 215 215 215 217 216 216 221 233 254 276 290 301 305 305 307 310 313 315 319 320 322 327 330 333 334 337 352 12 97 142 142 141 146 156 157 156 154 156 155 152
243 222 218 220 219 218 219 218 218 222 229 248 267 281 291 295 299 303 306 309 310 311 313 316 321 325 329 328 330 335 312 145 168 154 151 151 158 165 165 161 161 162 160
251 233 226 222 221 221 220 220 220 224 230 241 258 273 285 290 295 301 304 304 306 308 309 313 317 318 322 319 314 309 257 232 220 180 168 164 164 171 176 173 172 170 165
259 241 231 224 223 224 224 221 220 224 230 238 251 268 278 285 291 297 300 301 303 303 303 307 313 316 317 309 293 279 262 247 241 214 187 181 180 179 183 182 181 178 170
270 247 231 222 221 225 226 220 219 223 228 234 244 258 271 280 288 293 295 296 300 301 300 302 307 314 312 297 277 273 267 252 245 223 201 198 195 191 193 191 185 183 179
266 241 232 225 222 223 223 221 221 222 224 230 238 249 264 274 282 286 291 294 296 296 296 297 298 304 301 285 274 272 259 250 241 215 196 191 193 193 192 193 190 189 189
280 246 239 234 226 225 223 220 219 220 222 227 233 244 257 268 279 282 286 289 290 290 295 296 290 293 291 280 275 272 258 241 210 201 194 192 193 194 193 194 198 199 202
288 256 241 232 227 226 223 218 215 217 220 222 227 238 250 264 274 277 282 283 281 284 292 292 287 290 294 283 270 270 262 227 206 195 197 199 198 198 197 197 202 207 211
291 261 237 232 230 226 221 215 212 215 217 219 225 235 245 256 263 270 278 278 277 282 289 286 282 285 295 281 265 258 245 203 180 185 196 197 202 205 206 202 204 210 216
291 265 245 235 225 223 216 211 211 211 214 216 222 231 241 248 256 266 269 267 272 283 291 282 275 270 269 263 256 242 232 219 206 194 199 195 197 207 210 208 211 218 221
294 270 246 232 222 221 213 211 212 212 214 214 217 225 234 240 247 256 261 261 261 271 282 273 263 276 262 260 245 213 201 212 206 220 207 204 205 203 203 207 212 218 221
301 282 252 232 219 220 215 213 216 217 216 215 214 220 229 233 239 245 249 252 253 256 248 203 203 282 269 267 250 225 210 204 206 197 198 194 199 204 208 211 211 215 219
302 287 245 235 233 230 229 215 214 214 215 216 215 218 223 224 229 236 235 235 238 223 198 184 192 207 239 246 241 226 210 203 201 200 196 186 186 195 204 211 210 215 223
311 294 247 241 230 224 213 207 207 211 214 216 213 212 215 219 222 224 222 218 218 208 201 197 190 198 217 205 186 189 198 201 194 193 190 191 191 187 193 202 207 215 222
316 288 265 241 222 210 204 205 206 207 209 210 208 208 211 215 218 215 215 212 208 201 196 194 189 197 198 180 157 136 148 160 166 172 176 185 186 182 182 190 201 203 211
321 289 261 242 224 210 209 207 205 205 205 206 204 206 207 209 211 210 212 211 207 200 191 190 190 187 173 159 144 134 132 134 148 154 158 168 171 172 178 185 194 198 202
323 290 258 251 224 213 210 206 205 206 205 205 204 204 207 208 211 211 214 213 207 200 195 190 186 183 170 158 144 135 124 119 122 128 137 150 158 164 177 184 190 193 201
333 313 270 246 217 209 209 207 206 204 203 204 205 207 208 208 209 211 212 211 207 202 200 193 188 185 177 168 157 148 140 129 110 109 114 128 140 136 142 150 160 183 209
335 304 266 238 222 221 214 209 205 203 204 206 207 209 209 208 209 209 211 211 209 206 203 199 195 191 189 185 178 173 168 157 134 120 135 146 165 168 172 189 227 246 248
341 320 253 238 232 228 218 207 202 204 204 204 207 207 208 208 211 212 214 214 213 212 211 209 207 204 202 202 199 199 204 206 205 220 219 239 239 251 254 255 262 272 269
344 330 271 246 234 225 214 204 198 201 202 204 206 208 210 209 211 214 217 217 218 219 218 218 218 217 218 220 223 226 230 234 240 248 256 260 262 269 269 264 269 277 283
346 331 277 234 223 217 213 204 198 201 204 206 208 211 212 212 214 217 220 221 222 224 224 225 226 227 229 233 237 242 246 249 252 256 260 266 270 270 271 269 271 275 279
Height
5885 5885 5886 5887 5888 5889 5890 5891 5892 5893 5894 5895 5895 5895 5895 5895 5895 5895 5894 5894 5893 5892 5892 5891 5891 5890 5890 5890 5890 5889 5889 5889 5888 5888 5888 5888 5888 5888 5889 5889 5889 5889 5890
5884 5885 5886 5887 5888 5889 5890 5891 5892 5893 5894 5895 5895 5895 5895 5895 5895 5895 5894 5894 5893 5892 5892 5891 5891 5890 5890 5890 5890 5889 5889 5889 5889 5888 5889 5889 5889 5889 5889 5890 5890 5890 5891
5883 5884 5885 5886 5887 5889 5890 5891 5892 5893 5894 5895 5895 5895 5896 5896 5895 5895 5894 5894 5893 5892 5892 5891 5891 5890 5890 5890 5890 5889 5889 5889 5889 5889 5889 5889 5889 5890 5890 5890 5891 5891 5892
5882 5882 5884 5885 5886 5888 5889 5890 5891 5892 5893 5894 5895 5895 5896 5896 5895 5895 5894 5894 5893 5892 5892 5891 5891 5890 5890 5890 5889 5889 5889 5888 5889 5889 5889 5889 5890 5890 5891 5891 5892 5892 5893
5880 5881 5882 5884 5885 5886 5888 5889 5891 5892 5893 5894 5894 5895 5895 5896 5895 5895 5894 5893 5893 5892 5891 5891 5890 5890 5889 5889 5889 5889 5888 5888 5889 5889 5889 5890 5890 5891 5891 5892 5893 5893 5894
5878 5879 5881 5882 5884 5885 5887 5888 5889 5891 5892 5893 5894 5894 5895 5895 5895 5894 5894 5893 5892 5892 5891 5891 5890 5890 5889 5889 5889 5888 5888 5888 5889 5889 5890 5890 5890 5891 5892 5892 5893 5894 5894
5876 5877 5879 5880 5882 5883 5885 5887 5888 5889 5891 5892 5893 5893 5894 5894 5894 5894 5893 5893 5892 5891 5891 5890 5890 5889 5889 5889 5889 5888 5888 5888 5888 5889 5890 5890 5891 5891 5892 5892 5893 5894 5895
5874 5875 5877 5878 5880 5882 5883 5885 5886 5888 5889 5891 5892 5893 5893 5893 5894 5893 5893 5892 5892 5891 5890 5890 5889 5889 5888 5888 5888 5888 5888 5888 5888 5889 5890 5890 5891 5891 5892 5892 5893 5894 5895
5872 5873 5874 5876 5878 5880 5881 5883 5885 5886 5888 5889 5890 5891 5892 5893 5893 5893 5892 5892 5891 5890 5890 5889 5889 5888 5888 5888 5888 5887 5887 5888 5888 5889 5889 5890 5890 5891 5892 5892 5893 5894 5895
5869 5870 5872 5874 5876 5877 5879 5881 5883 5885 5886 5888 5889 5890 5891 5891 5892 5892 5891 5891 5890 5889 5889 5889 5888 5888 5888 5887 5887 5887 5887 5887 5887 5888 5889 5889 5890 5891 5891 5892 5893 5894 5895
5867 5868 5870 5872 5873 5875 5877 5879 5881 5883 5884 5886 5888 5889 5889 5890 5891 5891 5891 5890 5889 5889 5888 5888 5887 5887 5887 5887 5886 5886 5886 5886 5887 5887 5888 5889 5889 5890 5891 5892 5892 5893 5894
5865 5866 5867 5868 5870 5872 5874 5876 5879 5881 5883 5884 5886 5887 5888 5889 5889 5889 5889 5889 5889 5888 5888 5887 5887 5887 5886 5886 5886 5885 5885 5886 5886 5887 5887 5888 5889 5890 5890 5891 5892 5893 5894
5862 5863 5864 5865 5867 5870 5872 5874 5876 5879 5881 5883 5884 5886 5887 5887 5888 5888 5888 5888 5888 5887 5887 5886 5886 5886 5886 5886 5885 5885 5885 5885 5886 5886 5887 5887 5888 5889 5889 5890 5891 5892 5892
5859 5860 5861 5862 5864 5867 5869 5872 5874 5877 5879 5881 5883 5884 5885 5886 5886 5887 5887 5887 5887 5887 5886 5885 5885 5885 5885 5885 5884 5884 5884 5885 5886 5886 5886 5887 5887 5888 5889 5889 5890 5890 5891
5857 5857 5857 5858 5861 5863 5866 5869 5872 5874 5877 5879 5881 5883 5883 5884 5885 5885 5886 5886 5886 5886 5885 5885 5885 5885 5885 5884 5884 5884 5884 5884 5885 5885 5886 5886 5887 5887 5888 5888 5888 5889 5890
5854 5854 5854 5855 5857 5860 5863 5866 5869 5871 5874 5877 5879 5881 5882 5883 5884 5884 5885 5885 5885 5885 5885 5884 5885 5885 5884 5884 5884 5883 5884 5884 5884 5885 5885 5885 5886 5886 5887 5887 5887 5888 5888
5852 5852 5852 5853 5854 5857 5860 5862 5866 5869 5872 5874 5877 5879 5880 5881 5882 5883 5884 5884 5884 5884 5884 5884 5884 5884 5884 5884 5884 5883 5883 5883 5884 5884 5884 5885 5885 5885 5886 5886 5886 5887 5887
5849 5849 5850 5850 5852 5853 5855 5859 5862 5866 5869 5872 5874 5876 5878 5879 5880 5881 5882 5883 5883 5883 5884 5884 5884 5884 5884 5884 5884 5883 5883 5883 5883 5883 5884 5884 5884 5885 5885 5885 5886 5886 5886
5847 5847 5848 5848 5849 5851 5853 5856 5859 5863 5866 5869 5872 5874 5876 5877 5879 5880 5881 5882 5882 5883 5883 5884 5884 5884 5884 5884 5883 5883 5883 5883 5883 5883 5883 5883 5884 5884 5884 5884 5885 5885 5885
5844 5845 5846 5846 5848 5849 5850 5853 5857 5861 5864 5867 5869 5872 5873 5875 5877 5878 5879 5880 5881 5882 5882 5883 5883 5883 5883 5883 5883 5883 5883 5883 5883 5883 5883 5883 5883 5883 5883 5884 5884 5884 5884
5843 5843 5843 5844 5845 5847 5849 5852 5855 5858 5861 5864 5867 5869 5871 5873 5875 5876 5878 5879 5880 5881 5881 5882 5882 5883 5883 5883 5883 5884 5884 5884 5883 5883 5883 5883 5883 5883 5883 5883 5884 5884 5884
5842 5841 5842 5842 5843 5845 5848 5850 5853 5855 5858 5861 5864 5866 5869 5871 5873 5874 5876 5877 5878 5880 5880 5881 5882 5882 5882 5883 5883 5884 5884 5885 5884 5884 5884 5883 5883 5883 5883 5883 5883 5883 5883
5842 5840 5840 5841 5842 5844 5846 5847 5850 5853 5856 5859 5861 5864 5866 5869 5870 5872 5874 5875 5877 5878 5879 5880 5881 5881 5882 5883 5883 5884 5884 5884 5884 5884 5884 5884 5883 5883 5883 5883 5883 5883 5883
5841 5839 5839 5840 5841 5842 5844 5845 5847 5850 5853 5856 5859 5861 5864 5866 5868 5870 5872 5874 5875 5876 5877 5878 5879 5880 5881 5882 5882 5883 5884 5884 5884 5884 5884 5884 5883 5883 5883 5882 5882 5882 5881
5840 5839 5838 5838 5839 5841 5842 5843 5845 5848 5851 5853 5856 5859 5861 5864 5866 5868 5870 5871 5873 5874 5875 5877 5878 5879 5880 5880 5881 5882 5882 5883 5883 5883 5883 5883 5883 5882 5882 5881 5881 5880 5880
5839 5838 5837 5837 5838 5839 5840 5841 5843 5846 5848 5851 5853 5856 5859 5861 5863 5865 5867 5869 5870 5872 5873 5875 5876 5877 5878 5878 5879 5880 5880 5881 5881 5881 5881 5881 5881 5880 5880 5879 5879 5878 5878